CAPE
1244 1544 1575 2488 1900 2399 3428 2194 2164 4070 3493 3836 4628 3980 4408 4421 3808 3444 4033 3727 2010 475 212 2827 4988 4114 4876 5514 4211 4741 4254 3449 3263 2852 3532 4799 4152 3840 3155 2732 2935 3229 3046 2596 2274 2175 2110 1827 1394 984 780 654 681 672 720 724 697 663 533 398 436 348 349 0 0 2 3 3 3 2 2 3 5 6
2353 1798 1847 1989 2021 2119 2232 2442 2295 5842 3207 3121 3134 2783 3480 2979 3419 3983 3350 3952 3303 2877 1449 1974 2767 4242 4412 3795 3994 3700 4380 3305 2920 3045 2462 3420 4569 4010 3030 2752 3077 3464 3230 2787 2236 2146 2170 2002 1628 1212 916 770 645 687 744 743 782 691 632 537 474 0 0 0 0 1 2 2 2 2 2 4 5 5
2186 2508 2319 2867 2252 2571 1500 1802 1542 1994 3416 3210 3604 3311 4722 3056 4747 4210 4868 3707 5280 2751 2407 1987 2361 3655 4448 2124 1495 2980 3704 3116 3065 3446 3005 3502 4894 3438 2884 2748 3125 3624 3408 2984 2461 2142 2220 2175 1856 1469 1148 933 755 694 703 762 790 735 699 617 483 0 0 0 0 1 3 2 3 3 3 4 5 3
2550 2721 2345 2864 3023 2950 2958 2758 2706 3704 3403 3359 2866 2787 3435 3470 3300 4419 4106 3806 3753 3742 3039 2842 2043 1549 2771 2023 2051 3196 3137 3652 3018 3646 3306 3456 4446 3372 3316 2947 3098 3695 3562 3120 2702 2084 2183 2270 2094 1891 1612 1241 928 720 690 708 764 794 719 623 529 239 0 0 0 1 2 3 2 2 3 3 2 2
2632 3104 2705 2742 2964 3033 2735 2974 2423 2298 2966 2974 3085 3412 3987 3663 3778 3394 3687 3460 3756 3926 4165 3743 2596 2800 2487 2766 2336 2500 3114 4351 4310 3832 4221 3899 4515 3814 4260 3137 3450 3731 3659 3216 2685 2013 2044 2136 2152 2060 1943 1722 1330 909 719 690 758 805 786 660 484 435 0 0 0 1 2 2 2 2 2 2 2 2
3468 3365 3460 3101 2914 3020 2783 2562 2094 1977 1509 2482 2123 2436 2434 2804 3316 3706 3829 4078 3784 3964 3911 4074 4584 3341 2508 2540 3896 4101 3438 3176 3518 3425 3618 3416 3130 4126 4265 4244 3912 3808 3628 3230 2640 1958 1853 1894 1973 1941 1948 1814 1688 1294 923 738 752 868 836 649 584 390 93 0 0 2 2 2 2 2 2 2 1 2
3615 3566 3384 2984 2938 2540 2517 2505 2308 2111 2210 1785 1924 1995 2102 2315 2049 3576 3454 3432 3533 3512 3785 4061 3318 3456 5682 3634 3627 3698 3343 3454 3904 3962 3694 3610 2352 2386 3520 4826 3808 3828 3611 3343 2608 2023 2129 2076 2130 2167 1963 1822 1638 1582 1255 910 824 899 894 791 572 505 170 0 0 1 1 2 2 2 2 2 2 1
3578 3462 3530 3110 2822 2813 2964 2871 2468 2271 2402 2281 2495 3664 2626 2116 1943 2752 3547 3796 4087 3986 3863 4172 4077 3976 3914 4374 4428 3974 3714 3828 3622 3905 3143 3090 2710 3455 2676 2299 4023 3591 3425 3220 2483 2231 2325 2271 2302 2327 2136 1898 1779 1686 1508 1106 906 984 992 823 726 525 277 0 0 0 0 1 1 2 2 2 1 1
3490 3414 3270 3287 3277 3286 3001 3341 2833 2570 2404 2590 2561 2305 2557 4099 3586 2672 3713 4687 4580 4716 4625 4581 4591 4759 4826 4541 4592 4674 3962 4081 4318 4075 4127 3770 3101 3437 3202 2995 3927 3186 3026 2807 2446 2429 2444 2359 2360 2424 2244 2158 2082 1878 1684 1478 1002 1050 1093 1003 733 547 445 0 0 0 0 0 1 0 0 0 0 0
3123 3017 3136 3113 3303 3122 3026 2872 2751 2853 3004 3124 2594 2489 2832 2683 2718 3389 3615 3705 4286 4640 4563 4497 4637 5100 4865 4489 4496 4861 5364 4379 3611 4376 4174 3656 3609 4754 4726 3760 3082 3025 2676 2578 2379 2472 2465 2349 2418 2484 2332 2151 2115 2078 1998 1946 1406 1020 1249 1061 726 609 417 0 0 0 0 0 0 1 0 0 0 0
2738 2753 2705 3043 3118 3064 3120 2999 2970 3625 3697 3486 3161 3042 3673 3594 3502 3399 3141 3803 4090 4051 4208 4420 4508 4398 4454 4518 4752 5033 4571 4496 4110 4251 4947 4877 4650 4173 3915 4532 3849 2750 2571 2609 2610 2560 2539 2438 2373 2466 2391 2200 2106 2262 2280 2218 1760 963 1202 1125 788 572 391 167 0 0 0 0 0 0 0 0 0 0
2136 2438 2451 1974 2555 2744 3047 3028 3097 3194 3690 3468 3268 3654 3341 3432 3652 3551 3358 3612 3729 3940 3863 4161 4224 4412 4591 4883 4198 5282 4689 3727 3789 3846 3592 3946 4500 5112 5847 3990 3635 3510 3743 3615 2986 2593 2304 2350 2218 2205 2225 2122 2104 2293 2339 2224 1886 889 1000 1117 835 535 441 0 0 0 0 0 0 0 0 0 0 0
1836 1640 1448 1935 1708 2662 3225 2797 2818 2730 2918 3344 3394 3594 4091 4125 3801 3767 3722 4237 4748 4441 4252 4052 4125 4349 4631 4554 3969 3666 3172 2986 3411 4871 4086 4163 4617 4152 3272 3918 5075 5058 3707 3288 2838 2741 2400 2380 2200 2063 2009 2015 2190 2302 2231 2133 1944 1127 913 1015 890 637 478 64 0 0 0 0 0 0 0 0 0 0
1447 1169 1121 1021 2047 2240 3040 2765 2412 2154 2296 2601 3456 4719 4305 4437 4500 4332 4289 4174 4080 4471 4548 4192 4297 4278 3796 3289 3484 3377 3543 4113 4251 3899 4251 3893 3891 3209 3519 4532 3655 3417 3732 3188 3408 4282 3591 2744 3025 2763 2585 2474 2525 2532 2405 2352 2041 1627 1370 1027 788 570 430 10 0 0 0 0 0 0 0 0 0 0
1469 1119 1174 1068 1598 2955 2335 2609 2114 1955 1845 1926 2082 1939 2180 3424 5406 4484 4330 4168 4199 4430 4424 4327 4142 3684 3372 3224 2906 3090 2486 2216 2361 2902 5410 4442 4265 3818 3152 2886 4238 4280 2880 3239 3354 3852 4889 4169 4292 3898 3280 3031 2874 2767 2738 2444 2033 1780 1665 1171 780 526 347 0 0 0 0 0 0 0 0 0 0 0
1417 1274 980 812 538 886 1981 2883 2630 1904 1798 1828 1847 1891 1963 1961 2340 3111 4153 4866 4638 4384 4221 4080 3697 3221 3092 3494 3687 3211 2462 3162 3491 4808 3371 4148 3518 3718 4007 3894 3410 5953 4122 3276 3642 3956 4815 4813 4517 4148 3825 3326 2999 2846 2687 2376 2028 1761 1681 1271 921 626 0 0 0 0 0 0 0 0 0 0 0 0
1739 1741 1416 1144 842 314 1151 2600 3000 2923 2278 1699 1749 1733 1810 1838 1860 1878 2271 3030 3463 4354 5781 5450 4061 3402 3314 3274 3347 3220 3104 4144 3316 3663 3756 3380 3405 3309 2979 3230 3070 3492 5135 5369 5432 4607 4200 4263 3942 3481 3202 3161 2889 2509 2296 2181 1932 1706 1580 1329 1125 705 0 0 0 0 0 0 0 0 0 0 0 0
1505 1682 1580 1733 1458 1044 711 1541 3011 3618 3350 2812 2100 1969 1766 2454 2445 2063 1825 1814 2030 2857 3349 3636 4175 4795 4744 4435 4639 5016 4699 4061 3738 3920 4128 4426 4045 3606 3547 3788 4155 4708 4560 3958 3994 3654 3312 3466 3574 3575 3483 2756 2337 2292 2184 1899 1596 1516 1441 1272 1192 755 146 199 0 0 0 0 0 0 0 0 0 0
1046 1655 1695 1435 1397 1536 1543 1058 1281 3196 4580 4323 4166 3436 2898 2790 2874 2724 2594 2334 1898 1473 1276 2634 3016 3168 3845 3986 4174 4438 4808 4788 4927 4651 4219 4203 4193 4532 4696 4420 4542 4401 4362 4282 4182 3576 3404 3829 3829 3730 3698 2341 1771 1431 1361 1306 1308 1295 1255 1315 1222 787 682 530 0 0 0 0 0 0 0 0 0 0
1535 1611 1480 1622 1750 1704 1758 1794 1149 1506 3668 4923 4826 4703 4335 3784 3426 3139 2904 2569 2152 1817 1287 1096 1280 1871 2530 2582 2321 2325 2694 3620 4781 4660 4609 4739 4534 4267 4178 4212 4180 3945 3769 3735 3565 3474 3273 3612 3548 3424 3300 2425 2112 1665 1435 1399 1331 1301 1328 1337 1251 938 724 583 117 0 0 0 0 0 0 0 0 0
1051 1010 1128 1755 1535 1538 2109 2262 1661 1120 761 2425 3870 4734 5002 5055 4764 4384 3731 3210 2691 2244 1720 1152 895 938 1190 1350 1235 1116 1350 1861 2737 4260 4815 4673 4308 4268 4294 4113 3830 3426 3199 2939 3849 3932 3512 3909 4144 3933 3394 2952 2223 1951 1807 1655 1495 1431 1400 1316 1129 867 698 624 415 0 0 0 0 0 0 0 0 0
1115 1039 1180 1581 1428 1475 1565 1507 1651 1788 1421 1350 1951 2647 3272 3818 4170 4560 4517 3870 3077 2639 2379 2136 1762 1456 1360 1225 1047 893 900 923 1175 2105 2417 2932 3018 2748 2662 2456 2236 1975 1726 1891 2148 2923 4203 4077 4065 3438 3332 2980 2456 1956 1833 1761 1664 1527 1381 1109 896 798 737 690 580 71 0 0 0 0 0 0 0 0
1870 1860 1918 1990 1938 1732 1707 1430 1229 1278 1471 1642 1922 2171 2364 2459 2564 2687 3016 3464 3172 2539 2223 2153 2084 2027 1932 1784 1581 1345 1187 1037 1031 1474 2044 2249 2215 2028 1694 1329 1429 1511 1670 1498 1907 1905 2972 3981 3850 3310 3078 2635 2919 1939 1814 1626 1381 1123 1010 965 885 824 760 706 553 268 0 0 0 0 0 0 0 0
2409 2274 2292 2139 1550 1356 1160 1098 1234 1207 1163 1350 2033 2204 2135 2032 1929 1931 2033 2342 2140 2176 3138 3092 2239 2068 2034 1968 1854 1744 1617 1500 1338 1187 1549 1953 2188 1980 1810 1791 1590 1350 1121 1458 1857 2188 2722 3621 3651 3398 2512 1453 1726 1342 1135 1162 1155 1128 1055 994 953 857 723 651 535 340 0 0 0 0 0 0 0 0
2481 2656 2630 2325 2024 1692 1312 1128 1088 1105 1177 1268 1490 2158 2265 2071 1894 1776 1919 1919 1914 1909 1870 2213 3773 3524 3018 2872 2610 2293 2153 2088 2175 2026 1694 1734 1983 1895 1659 1404 1185 1112 1051 1155 1200 1496 1665 2210 1876 1963 2074 2089 2023 1864 1338 1325 1263 1198 1162 1115 991 858 722 604 442 79 0 0 0 0 0 0 0 0
2537 2570 2607 2796 2542 2115 1815 1544 1379 1541 1597 1578 1449 1619 1708 1895 1929 1805 2241 2347 2177 2022 2058 2393 2193 2137 3341 3797 3444 3131 2986 2847 2682 2512 2682 2356 2073 1874 1606 1380 1218 1023 1069 1322 1168 2085 2343 2603 2340 2112 2497 2570 2462 1783 2061 1474 1456 1446 1277 1129 988 802 657 504 182 0 0 0 0 0 0 0 0 0
2707 2767 3018 2552 2488 2413 2316 2166 2100 2040 1988 2117 2152 2160 1992 1630 1796 1997 2180 2420 2497 2406 2227 2071 2094 2162 1938 1733 1944 2719 3320 3306 3284 3070 3002 2946 2782 2518 2298 2038 1643 1307 1102 1832 3486 3140 3527 3458 3456 2715 2696 2977 2651 2667 2170 2224 1696 1408 1246 1042 905 846 613 457 109 0 0 0 0 0 0 0 0 0
2535 2609 2587 2160 2162 2375 2324 2263 2136 2002 1937 1939 2046 2119 2155 2223 2149 1720 1847 2127 2465 2440 2305 2244 2219 2151 2297 2454 2235 2110 2179 2329 2547 3076 2983 2857 3137 2777 2709 2551 2218 1717 1532 1678 3162 3942 4642 3976 3993 3408 2963 2965 2933 2561 2490 2248 1945 1593 1452 1238 1015 821 620 0 0 0 0 0 0 0 0 0 0 0
2134 2629 2289 2101 2039 2129 2144 2098 2037 1957 1881 1917 2042 2222 2337 2410 2333 2152 1909 1866 2221 2326 2253 2149 2069 2048 2026 2162 2286 2513 2784 2722 2493 2166 2313 2306 2445 3174 2598 2494 2215 1896 1633 1684 2020 3474 4195 3929 3687 3868 3645 3336 2846 2746 2480 2298 2330 1703 1438 1266 1072 752 573 0 0 0 0 0 0 0 0 0 0 0
1536 1562 1662 1723 1638 1698 1606 1655 1671 1692 1813 1940 1908 1857 2110 2314 2374 2229 2125 2054 1896 1990 2028 1903 1834 1886 1882 1800 1781 1898 2054 2157 2325 2693 2916 3024 2826 2780 3411 2998 2756 2816 2415 1863 1831 1980 2660 3838 4105 3639 3562 3713 3536 3216 2976 2778 2520 2120 1626 1345 1150 772 602 142 0 0 0 0 0 0 0 0 0 0
1598 1431 1393 1393 1482 1571 1591 1558 1516 1538 1546 1472 1406 1618 1952 2162 2234 2280 2149 2076 2001 1889 1802 1777 1622 1499 1704 1771 1773 1859 1874 1832 1959 2135 2097 2179 2362 2922 3167 3240 3430 3240 2970 2874 2419 2085 2050 2142 2783 3911 3631 3416 3450 3328 3145 2795 2525 2374 1954 1597 1242 954 540 0 0 0 0 0 0 0 0 0 0 0
1506 1493 1388 1287 1288 1331 1397 1458 1480 1505 1451 1220 1168 1355 1620 1826 2027 2162 2107 2080 1942 1899 1860 1936 1727 1587 1422 1613 1825 1958 2014 2062 2119 2208 2192 2038 2005 1998 2237 2690 2880 2954 3341 3384 3100 2717 2585 2745 2916 3516 3668 3476 3295 3311 3217 2909 2556 2227 2102 1660 1273 990 772 659 302 0 0 0 0 0 0 0 0 0
1641 1577 1439 1329 1191 1114 1124 1199 1305 1376 1354 1505 1444 1368 1441 1653 1818 1925 1998 2003 1996 2011 1950 1848 1694 1756 1840 1748 1662 1724 1938 2061 2085 2193 2380 2483 2322 2262 2360 2351 2411 2818 2995 3092 3284 3465 3386 3319 3265 3458 3734 3760 3599 3501 3376 3091 2754 2441 2110 1809 1500 1228 885 658 236 0 0 77 0 0 0 0 0 0
1694 1683 1610 1440 1178 1022 959 977 1020 1050 893 1450 1942 1981 1779 1805 1906 1937 1962 1976 1952 1935 1913 1759 1638 1479 1476 1794 1817 1738 1683 1795 1914 2044 2160 2584 2911 2786 2813 2699 2580 2494 2544 2832 3078 3386 3705 3804 3771 3614 3552 3780 3942 3661 3407 3052 2800 2541 2264 1887 1562 1441 1009 702 523 412 444 409 0 0 0 0 0 0
1784 1808 1685 1495 1360 1281 1266 1275 1338 1342 1330 1335 1854 2152 1977 1837 1812 1831 1819 1849 1848 1771 1645 1466 1408 1330 1256 1457 1610 1793 1736 1643 1698 1894 1986 2184 2849 3296 3109 2966 2892 2870 2844 2817 2865 3066 3404 3703 3775 3776 3667 3579 3543 3588 3506 3213 2872 2605 2323 2013 1766 1505 1268 808 626 488 501 478 434 244 0 0 0 0
1762 1634 1542 1660 1727 1708 1509 1256 1212 1233 1350 1445 1435 1412 1457 1578 1627 1675 1675 1642 1598 1582 1556 1548 1452 1353 1271 1276 1434 1488 1629 1739 1772 1823 1878 2173 2442 2770 3231 3270 3097 2989 2998 3008 3022 2955 2865 3126 3511 3480 3364 3251 3026 2866 2815 2975 2866 2697 2391 2063 1771 1591 1351 1008 691 577 588 546 470 302 0 0 0 0
1505 1475 1372 1222 1429 1622 1659 1462 1362 1464 1527 1486 1372 1278 1251 1251 1174 1118 1224 1260 1108 1182 1314 1538 1587 1501 1400 1311 1161 1268 1338 1428 1648 1802 1862 1968 2144 2345 2574 2740 2885 2979 2968 3015 3076 3047 2838 2682 3114 3155 3033 2816 2633 2386 2252 2374 2489 2500 2405 2163 1892 1616 1418 1134 868 694 678 588 524 206 0 0 0 243
1704 1717 1589 1429 1349 1439 1594 1651 1600 1600 1581 1494 1410 1344 1346 1383 1426 1401 1366 1427 1392 1125 936 921 1195 1404 1504 1521 1485 1342 1277 1490 1591 1688 1695 1851 2024 2220 2404 2529 2644 2672 2701 2850 2952 2986 2850 2716 2731 2928 2807 2651 2375 2163 2027 1998 2087 2158 2172 2144 1957 1731 1456 1202 950 801 714 573 579 610 351 0 0 0
1589 1864 1933 1853 1655 1471 1516 1500 1399 1276 1187 1140 1315 1628 1784 1686 1463 1446 1539 1608 1479 1280 1094 1031 949 1288 1380 1565 1610 1581 1536 1456 1624 1652 1672 1744 1764 1874 1932 2046 2203 2482 2711 2761 2796 2781 2718 2556 2552 2670 2838 2683 2440 2197 1991 1832 1755 1708 1783 1874 1795 1693 1488 1223 1039 867 729 622 616 610 584 464 106 0
1178 1648 1920 2052 2038 2202 2309 2381 2350 2178 1763 1603 1845 2077 2206 2161 1747 1430 1414 1473 1528 1452 1295 1173 1150 1427 1474 1680 1685 1693 1678 1686 1623 1564 1748 1703 1710 1625 1706 1723 1750 1830 2065 2314 2486 2646 2674 2584 2480 2451 2561 2656 2521 2366 2167 1874 1655 1945 1559 1436 1517 1479 1482 1145 1038 859 743 785 866 857 854 726 604 424
975 1051 1261 1541 1762 1928 2118 2230 2366 2357 2298 2345 2436 2448 2418 2353 2098 1739 1554 1538 1402 1376 1295 1064 1122 1486 1525 1813 1868 1845 1836 1845 1835 1812 1795 1911 1852 1818 1807 1786 1831 1858 2004 2058 2108 2188 2370 2560 2602 2475 2342 2291 2174 2077 1878 1972 1858 1893 1974 1690 1468 1354 1256 1093 991 891 888 943 1034 1009 878 850 854 783
1541 1322 1470 1551 1657 1904 2104 2301 2247 2235 2350 2505 2475 2488 2492 2429 2448 2197 1911 1778 1509 1282 1273 1275 1222 1257 1593 1950 1959 1892 1736 1700 1806 1789 1985 2011 2069 2009 1903 1967 1936 1922 1938 2086 2122 2123 2110 2464 2538 2555 2525 2286 2099 1902 1842 1773 1833 1744 1672 1604 1534 1410 1303 1190 1064 956 956 1024 1126 1156 988 901 823 665
1092 1590 2054 2145 2111 2170 2258 2370 2467 2630 2668 2723 2856 2526 2370 2412 2384 2124 1819 1721 1744 1766 1561 1670 1903 1502 1554 1514 1549 1479 1473 1373 1482 1544 1447 1485 1547 1449 1637 1793 1803 1712 1692 1948 2116 2240 2258 2451 2370 2380 2289 2121 1909 1810 1744 1784 1916 1872 1702 1642 1565 1472 1394 1257 1125 1072 1024 1045 1058 1095 1028 936 819 766
607 860 1029 1129 1237 1349 1446 1468 1628 1788 1879 2244 2370 2336 2330 2025 2011 2034 1957 1823 1594 1534 1668 2006 1454 1141 1304 1131 1220 1455 1586 1523 1403 1546 1602 1644 1563 1563 1517 1784 1745 1633 1732 1672 1680 1865 1979 1976 2025 2014 1940 1835 1834 1746 1675 1769 1936 1931 1845 1720 1685 1641 1606 1461 1253 1151 1150 1113 1048 952 950 885 808 841
11 366 611 800 813 943 1147 1294 1441 1560 1712 1907 2058 2152 2249 2250 2277 2159 1953 1870 1983 2053 2148 2111 2008 2163 2196 1911 1707 1446 1413 1581 1721 1909 2048 2074 1990 1987 2018 1792 1984 2054 1961 1905 1816 1763 1731 1982 1972 1959 1829 1835 1775 1750 1711 1822 1958 1938 1896 1884 1859 1742 1657 1574 1536 1404 1310 1220 1061 1055 1034 965 752 592
Wind_Speed
3 1 1 1 1 4 5 5 5 5 6 7 6 4 5 5 5 6 7 5 5 2 2 3 4 5 4 2 2 6 4 8 8 6 8 13 12 14 16 18 18 17 15 15 16 19 21 22 22 22 20 19 17 16 15 14 13 13 13 13 14 14 12 nan nan nan nan nan nan nan nan nan nan nan
2 1 1 4 1 1 3 2 2 2 3 2 5 4 4 4 5 5 6 6 5 5 4 4 4 4 2 4 3 4 8 10 9 8 8 11 15 20 20 21 21 20 19 18 19 21 22 24 23 22 21 20 19 16 15 13 13 12 13 14 15 nan nan nan nan nan nan nan nan nan nan nan nan nan
3 1 1 3 2 1 0 1 2 2 4 2 4 5 5 4 5 6 7 5 6 8 6 6 8 6 3 8 8 10 11 9 9 10 10 10 20 23 21 24 25 24 22 20 20 21 23 24 24 23 22 21 19 17 15 13 13 12 13 14 15 nan nan nan nan nan nan nan nan nan nan nan nan nan
3 3 1 2 2 2 4 4 5 5 5 3 0 3 5 6 7 7 6 5 6 6 6 8 8 6 11 9 9 13 10 14 11 12 12 12 21 20 20 23 26 26 25 22 21 22 24 25 25 24 23 21 20 18 16 15 14 13 13 14 15 17 nan nan nan nan nan nan nan nan nan nan nan nan
3 5 4 2 3 2 2 3 3 3 5 4 3 4 4 3 5 5 6 6 6 7 7 10 7 8 11 10 12 10 10 15 14 13 13 14 15 17 19 20 23 26 27 26 25 24 24 24 24 23 22 21 20 18 17 16 15 14 14 14 16 17 nan nan nan nan nan nan nan nan nan nan nan nan
3 5 6 5 3 3 2 3 1 2 1 6 4 3 2 4 4 5 7 5 7 7 9 7 8 9 10 8 11 12 13 10 13 13 13 12 8 15 16 16 19 23 25 27 27 24 22 22 22 22 22 21 20 19 19 18 17 15 15 15 17 18 nan nan nan nan nan nan nan nan nan nan nan nan
5 4 6 5 4 3 4 2 2 2 2 3 4 5 5 4 3 6 7 8 7 7 7 9 9 8 10 10 12 11 10 10 11 11 12 10 11 13 16 17 15 24 24 26 25 23 20 20 21 22 22 22 22 21 21 20 19 18 17 17 18 18 18 nan nan nan nan nan nan nan nan nan nan nan
6 6 6 4 4 3 3 5 4 3 4 4 6 6 6 6 4 7 9 9 10 9 8 9 9 10 10 10 11 11 10 11 12 13 13 12 12 15 14 13 18 20 24 23 22 21 19 19 20 21 23 24 25 24 24 24 23 21 20 19 19 19 18 nan nan nan nan nan nan nan nan nan nan nan
7 7 6 5 4 4 3 5 5 5 4 5 7 6 7 8 9 10 10 10 9 8 7 8 8 8 9 10 9 10 10 10 12 13 12 13 14 16 18 11 17 19 22 20 20 19 19 20 21 22 23 25 27 28 27 26 25 24 22 21 20 19 18 nan nan nan nan nan nan nan nan nan nan nan
7 7 7 6 6 5 4 4 5 6 4 5 5 7 8 9 10 10 9 8 8 9 8 8 7 9 9 10 10 10 11 12 12 12 12 13 13 15 15 13 12 16 15 15 15 17 19 21 24 26 26 28 29 30 29 28 27 25 23 21 19 19 18 nan nan nan nan nan nan nan nan nan nan nan
6 6 7 8 7 7 7 6 6 7 6 6 6 7 9 11 11 10 9 9 9 8 8 7 8 7 8 9 9 10 11 12 12 11 11 12 13 13 12 11 10 13 18 17 21 22 24 24 25 28 29 30 31 31 30 29 27 24 22 20 19 19 18 17 nan nan nan nan nan nan nan nan nan nan
5 7 7 6 8 8 8 8 8 7 8 8 7 8 8 9 10 10 10 11 10 10 9 8 8 9 8 9 10 11 13 11 9 10 10 8 9 12 14 14 13 13 15 17 17 18 20 18 21 26 27 29 30 31 31 30 28 26 22 21 20 19 19 nan nan nan nan nan nan nan nan nan nan nan
7 6 6 7 7 10 10 9 8 7 8 10 9 8 9 9 8 9 10 10 11 10 9 8 9 8 7 8 10 9 6 5 6 10 12 10 13 16 15 14 15 15 14 14 12 17 20 17 18 21 21 22 27 29 32 29 31 28 25 23 21 20 20 nan nan nan nan nan nan nan nan nan nan nan
8 6 6 5 5 8 12 12 11 9 6 7 10 11 10 9 9 9 8 8 8 9 8 8 8 8 8 9 9 7 5 5 7 9 11 12 14 15 14 14 14 11 11 11 12 14 17 16 18 19 19 20 27 27 28 27 29 29 28 25 23 22 21 nan nan nan nan nan nan nan nan nan nan nan
7 8 8 8 6 8 10 12 13 12 10 7 5 5 8 12 12 10 9 8 9 8 8 8 8 8 8 8 9 9 10 10 10 12 15 15 16 15 14 10 12 13 12 12 14 14 17 16 14 18 20 21 25 27 29 33 35 34 30 27 25 23 21 nan nan nan nan nan nan nan nan nan nan nan
8 7 7 7 6 9 11 13 13 12 11 10 8 7 6 5 6 10 12 12 11 9 8 9 9 10 10 10 11 10 10 11 11 14 15 15 14 11 10 11 11 13 15 12 13 13 15 15 15 13 14 18 25 27 33 38 38 36 33 29 27 24 nan nan nan nan nan nan nan nan nan nan nan nan
8 10 10 7 8 8 8 12 14 14 11 10 10 8 7 5 5 4 5 9 10 14 12 11 10 10 11 10 10 11 12 15 12 12 11 12 10 10 9 11 11 11 15 14 14 13 13 15 13 11 13 15 21 26 32 38 38 36 35 31 28 27 nan nan nan nan nan nan nan nan nan nan nan nan
10 9 9 10 9 9 9 12 13 14 13 12 10 10 10 9 5 2 2 2 4 7 8 8 8 10 12 10 13 12 13 12 11 10 9 11 11 10 11 13 13 15 17 15 14 13 12 14 12 11 10 16 20 24 32 37 36 36 36 34 31 28 26 23 nan nan nan nan nan nan nan nan nan nan
11 13 11 10 10 11 13 10 10 14 15 14 12 11 9 8 7 6 6 6 7 6 7 6 4 5 7 7 9 10 11 10 11 11 10 11 11 11 13 13 14 14 17 17 17 16 15 16 13 12 12 17 20 23 29 35 36 36 37 35 32 30 27 25 nan nan nan nan nan nan nan nan nan nan
15 14 13 13 12 12 12 12 8 10 16 17 14 12 11 10 8 7 7 6 5 4 4 5 4 5 5 5 6 6 7 9 11 10 10 13 12 10 11 12 15 16 20 21 19 16 16 17 16 14 16 22 21 24 25 30 34 35 35 35 33 31 29 26 24 nan nan nan nan nan nan nan nan nan
16 16 16 15 14 12 13 13 12 11 14 16 15 14 13 12 10 9 10 10 9 6 6 5 4 5 6 6 7 8 8 10 11 12 13 15 15 14 13 14 16 17 20 21 23 19 17 19 19 17 18 22 24 25 28 29 32 33 34 34 34 32 30 27 24 nan nan nan nan nan nan nan nan nan
17 16 11 14 16 14 13 11 14 14 17 16 15 14 13 13 10 10 12 14 13 11 9 8 8 8 7 6 6 7 8 10 15 16 13 14 16 13 14 13 15 16 19 21 23 21 21 23 24 21 21 21 25 27 28 30 30 32 31 32 33 32 30 29 26 nan nan nan nan nan nan nan nan nan
21 21 18 13 15 16 15 12 14 16 20 18 17 17 16 13 9 11 16 16 14 17 16 9 7 5 4 6 9 10 12 14 17 18 16 17 17 15 14 15 16 15 18 22 27 21 21 26 25 26 25 23 25 27 29 30 30 30 30 28 26 28 29 28 26 23 nan nan nan nan nan nan nan nan
22 21 21 19 15 14 14 15 15 17 21 20 19 21 19 14 9 15 18 17 17 18 17 15 12 9 9 9 11 12 13 15 21 19 19 20 20 18 17 18 19 17 19 25 27 24 25 29 27 31 29 27 26 28 28 28 29 30 30 30 26 27 27 27 24 23 nan nan nan nan nan nan nan nan
23 24 22 21 19 18 18 18 18 19 21 22 22 22 19 14 13 19 21 19 17 19 17 14 15 14 14 14 14 15 17 17 19 22 22 22 21 21 20 19 20 18 20 24 28 25 24 29 28 31 29 31 30 32 31 30 30 29 31 31 28 27 27 26 25 nan nan nan nan nan nan nan nan nan
27 26 27 26 23 21 21 19 19 19 22 25 27 21 15 11 13 18 20 21 21 19 17 15 13 12 15 16 17 18 20 22 23 23 24 24 22 22 21 21 22 21 21 25 31 28 27 28 31 32 33 33 31 32 34 33 30 29 29 29 28 28 28 26 26 nan nan nan nan nan nan nan nan nan
26 28 30 36 44 37 34 31 28 26 23 27 26 19 17 15 13 19 21 19 18 16 15 12 11 11 12 13 15 19 21 22 24 24 24 26 27 25 23 23 23 23 22 24 29 28 29 28 32 33 32 33 31 32 32 32 32 30 29 27 27 28 27 25 25 nan nan nan nan nan nan nan nan nan
27 28 33 37 35 33 31 31 29 27 29 29 22 21 19 17 17 23 19 16 15 13 11 9 9 10 12 14 16 18 21 21 23 23 22 22 25 25 24 23 22 22 22 23 24 25 26 25 26 28 30 31 30 29 28 29 31 33 29 27 25 27 27 nan nan nan nan nan nan nan nan nan nan nan
27 32 38 33 27 27 29 27 26 27 25 24 24 22 21 21 28 24 18 14 13 11 9 10 11 10 11 13 15 19 22 21 20 20 18 17 18 21 19 17 18 18 18 19 21 23 24 24 24 27 28 29 29 28 29 28 30 30 28 29 23 25 26 nan nan nan nan nan nan nan nan nan nan nan
20 22 24 26 26 25 25 26 26 28 29 25 22 22 24 28 26 24 20 16 14 12 12 12 11 11 13 14 15 16 16 14 13 16 16 16 15 16 17 15 11 13 16 17 18 20 22 24 25 26 27 29 30 29 30 29 27 31 30 28 25 24 25 28 nan nan nan nan nan nan nan nan nan nan
27 19 18 22 23 26 24 24 25 26 27 29 29 27 26 26 26 24 22 20 16 14 13 13 12 13 14 15 15 14 13 11 12 15 14 12 13 17 17 16 14 15 14 16 18 19 20 21 23 27 27 27 29 29 30 30 28 29 31 30 30 26 26 nan nan nan nan nan nan nan nan nan nan nan
35 31 26 23 25 25 25 26 28 28 28 25 24 27 26 26 26 24 22 20 18 16 16 15 15 14 14 12 12 13 12 11 12 16 15 14 13 15 15 14 13 15 17 18 19 20 21 21 23 24 25 27 27 28 30 29 28 29 29 31 30 26 29 30 31 nan nan nan nan nan nan nan nan nan
35 34 33 30 28 27 28 29 29 28 28 25 21 22 26 27 30 31 31 26 20 19 17 14 13 13 14 12 12 12 10 10 12 16 15 15 15 15 16 14 14 17 17 18 21 22 22 21 23 24 25 24 26 27 29 28 27 29 30 30 32 31 29 28 31 nan nan nan nan nan nan nan nan nan
32 31 31 29 29 29 31 33 32 30 28 25 23 22 24 26 29 32 32 28 25 22 18 14 13 11 12 10 11 11 8 9 11 14 16 15 18 18 18 17 17 18 19 19 22 25 25 24 24 24 25 25 25 27 29 28 27 29 30 31 33 33 32 33 31 33 35 36 nan nan nan nan nan nan
32 31 32 30 29 29 32 32 32 32 31 29 28 26 26 26 26 27 28 30 31 28 21 16 12 11 10 8 9 10 9 9 12 14 16 17 19 19 20 19 18 20 21 21 22 25 28 28 28 27 27 26 23 22 27 30 29 28 29 30 31 31 34 34 35 33 33 34 37 36 nan nan nan nan
30 33 33 30 29 30 29 28 29 31 32 31 30 28 27 25 27 28 25 27 29 28 24 18 14 11 9 8 9 9 10 12 13 15 16 18 19 20 20 19 19 20 22 22 23 27 30 30 31 30 30 30 27 22 22 30 32 29 29 28 30 31 34 35 35 35 35 34 37 40 nan nan nan nan
32 33 34 31 31 32 31 30 30 31 32 32 32 31 29 26 25 25 25 30 28 27 25 22 15 10 8 9 9 11 12 14 14 16 17 19 21 22 21 20 21 22 23 23 26 28 32 31 33 33 32 32 31 25 22 32 31 33 32 29 29 32 36 36 37 35 34 36 38 40 nan nan nan 37
35 36 34 33 34 34 34 32 32 33 32 31 29 28 25 22 22 22 25 27 25 27 26 22 15 11 8 11 13 14 16 19 19 18 19 22 23 24 24 23 23 25 25 25 27 28 31 31 33 34 34 33 32 29 25 30 32 28 34 36 33 34 37 39 37 37 35 36 38 40 42 nan nan nan
36 36 37 35 35 36 35 33 33 32 31 29 26 24 22 20 20 21 23 23 23 25 26 23 17 11 9 13 17 20 22 25 24 23 23 24 26 25 25 25 25 28 28 27 27 28 30 30 33 36 37 33 30 30 31 31 29 28 32 39 38 37 38 39 38 38 39 38 37 39 40 42 41 nan
39 38 37 36 36 37 35 33 31 30 29 27 25 27 27 24 23 21 19 21 24 24 24 21 15 10 10 16 22 26 28 28 28 27 27 28 28 27 26 26 26 27 29 27 27 28 29 30 33 36 37 35 31 31 33 34 32 32 33 35 41 43 39 41 40 42 40 40 43 43 43 45 43 42
44 42 40 39 39 39 36 33 30 30 32 29 26 28 29 30 28 25 24 25 28 29 25 18 12 11 13 20 25 30 31 33 32 31 30 30 29 29 27 27 27 28 28 27 27 28 29 32 33 35 38 39 37 37 33 34 33 33 34 34 35 39 41 43 43 44 43 45 45 44 44 45 46 47
48 45 43 43 43 42 40 36 33 32 37 40 38 34 35 38 37 33 33 34 34 31 26 16 12 17 23 27 32 37 39 39 38 35 33 31 30 29 28 28 27 27 28 27 26 27 30 37 41 44 47 46 43 39 32 31 30 32 36 37 40 39 37 38 42 45 46 47 46 44 44 46 48 46
54 51 47 45 46 46 45 43 41 41 44 48 49 50 50 51 46 41 40 39 35 28 22 17 19 29 36 44 51 50 43 34 32 33 35 34 32 30 30 30 28 28 28 28 27 27 30 37 43 43 47 45 40 39 33 31 31 32 35 39 39 42 42 41 39 38 40 46 48 48 50 52 52 46
60 59 57 55 54 55 56 55 52 49 48 50 51 57 64 57 46 40 38 37 33 30 32 38 40 41 42 42 41 38 37 34 35 37 38 36 33 31 30 32 34 33 31 31 28 27 30 33 40 42 42 39 38 38 34 32 32 34 35 37 40 41 42 44 43 41 39 34 34 42 49 51 49 47
nan 60 59 58 55 54 55 56 56 56 56 58 58 57 57 54 45 39 38 37 35 35 43 53 47 41 40 37 34 34 37 40 41 41 45 42 39 35 32 32 33 30 29 29 32 32 30 30 36 41 39 38 38 37 36 35 34 35 38 40 40 41 43 46 47 46 42 40 39 41 42 44 45 46
Wind_Direction
85 305 75 235 180 138 215 198 171 228 205 181 162 173 170 182 183 171 185 184 181 123 184 241 203 246 261 289 302 311 312 307 323 269 290 315 318 338 345 328 323 325 331 333 334 333 333 334 338 337 340 339 341 344 347 353 357 360 359 1 357 355 347 nan nan nan nan nan nan nan nan nan nan nan
103 79 347 316 38 173 207 208 118 241 245 216 148 178 174 216 191 189 207 187 188 190 177 238 254 219 278 318 298 281 276 310 297 294 290 306 323 330 338 328 324 327 328 332 333 335 335 336 335 335 336 342 345 351 357 1 7 10 12 11 6 nan nan nan nan nan nan nan nan nan nan nan nan nan
1 50 139 276 310 253 56 304 327 295 280 178 168 159 206 210 214 214 206 211 198 209 194 211 250 284 341 245 239 267 292 301 303 288 297 298 322 328 329 329 325 324 327 330 333 336 338 337 335 337 342 347 354 0 6 11 17 16 15 14 9 nan nan nan nan nan nan nan nan nan nan nan nan nan
326 317 290 209 240 211 187 183 192 271 280 271 252 161 219 210 211 228 234 224 203 208 196 211 211 200 245 247 262 252 258 299 313 294 300 305 318 316 314 326 325 325 327 332 338 341 342 341 341 345 350 355 359 4 8 13 17 13 12 9 6 6 nan nan nan nan nan nan nan nan nan nan nan nan
294 304 303 270 256 225 219 196 178 215 276 270 225 193 233 262 241 244 233 222 216 214 218 226 223 226 242 249 256 263 271 280 293 301 296 295 310 313 313 317 325 327 327 334 339 343 347 348 349 350 353 357 1 3 4 7 10 7 5 1 358 359 nan nan nan nan nan nan nan nan nan nan nan nan
229 263 284 282 273 277 239 219 200 215 226 294 281 281 227 243 271 268 268 251 240 228 233 233 237 235 246 250 269 269 269 270 276 281 286 292 305 306 313 312 318 329 329 335 339 348 354 356 353 352 352 354 357 356 357 359 2 360 356 353 351 346 nan nan nan nan nan nan nan nan nan nan nan nan
260 246 268 281 276 291 293 283 210 212 205 232 286 308 298 289 263 276 282 265 255 246 241 243 240 251 258 261 256 262 275 279 286 289 292 300 289 284 309 316 316 329 337 336 340 352 360 359 355 350 349 348 349 349 348 350 347 348 347 346 340 338 342 nan nan nan nan nan nan nan nan nan nan nan
263 267 262 276 291 282 277 294 284 232 208 214 216 232 273 294 298 263 280 266 260 252 242 250 251 248 241 254 256 254 263 274 280 287 286 290 305 301 291 298 316 327 342 334 340 350 357 359 355 349 346 343 341 342 341 339 341 342 342 339 335 335 336 nan nan nan nan nan nan nan nan nan nan nan
263 266 267 273 273 270 257 271 284 265 249 221 222 233 239 253 257 246 261 272 279 271 262 252 254 253 260 262 265 268 261 269 275 276 292 294 292 302 303 313 316 327 339 333 341 347 351 355 354 348 343 339 336 337 335 335 336 338 339 337 335 333 334 nan nan nan nan nan nan nan nan nan nan nan
266 268 276 271 272 273 267 258 267 272 264 250 233 225 233 243 249 253 252 261 263 271 273 268 252 258 256 257 264 275 282 276 276 280 278 278 285 295 304 314 316 319 320 320 328 339 344 352 352 344 342 341 338 337 337 337 338 339 339 341 339 337 336 nan nan nan nan nan nan nan nan nan nan nan
266 265 263 267 270 269 270 264 257 263 269 255 245 242 233 240 253 259 264 264 268 270 268 267 271 266 268 274 268 278 289 293 300 302 292 292 298 304 312 313 316 315 324 341 344 337 335 341 334 337 343 344 344 342 342 343 342 343 347 344 341 341 341 342 nan nan nan nan nan nan nan nan nan nan
276 274 276 272 273 276 267 268 262 260 263 266 249 250 244 235 237 243 250 262 267 270 271 274 273 278 278 280 287 277 276 279 288 298 299 308 311 317 311 314 318 319 323 333 340 344 340 341 339 337 344 351 347 343 344 347 345 347 347 345 342 344 344 nan nan nan nan nan nan nan nan nan nan nan
276 262 259 273 275 273 293 299 285 270 267 264 266 257 252 254 251 241 237 239 253 264 269 266 270 273 272 269 262 261 274 311 319 300 304 310 305 301 300 307 323 327 333 339 348 336 342 345 340 333 340 347 344 343 347 342 346 345 348 347 342 345 343 nan nan nan nan nan nan nan nan nan nan nan
287 286 272 254 289 306 305 309 307 304 285 261 250 253 265 266 260 256 251 248 242 244 253 260 259 252 256 258 270 288 297 288 274 275 285 294 296 297 307 311 315 333 340 334 332 326 329 343 333 340 348 346 338 342 344 346 341 344 346 343 343 345 340 nan nan nan nan nan nan nan nan nan nan nan
270 268 278 280 264 277 301 303 314 310 310 307 283 249 242 245 247 251 259 252 246 243 247 251 253 253 250 256 256 259 268 271 276 280 283 293 295 300 299 308 310 323 341 339 328 330 326 334 344 342 351 349 344 346 353 353 348 346 345 343 341 340 336 nan nan nan nan nan nan nan nan nan nan nan
280 272 257 258 273 282 288 292 298 305 315 315 310 300 276 258 254 252 247 242 245 250 247 249 256 259 265 266 274 276 278 281 274 269 268 276 280 284 295 303 314 313 318 330 326 333 326 332 345 351 356 347 341 352 349 351 348 346 344 343 340 336 nan nan nan nan nan nan nan nan nan nan nan nan
274 273 278 263 242 232 274 296 296 299 302 314 326 320 315 294 278 261 261 262 252 238 240 247 256 266 264 261 265 266 268 267 267 267 269 272 279 292 306 312 311 316 318 319 319 323 329 327 332 350 360 358 334 340 340 344 344 345 347 345 341 335 nan nan nan nan nan nan nan nan nan nan nan nan
280 281 271 269 266 259 239 246 263 277 291 288 283 275 268 263 266 282 292 287 278 265 253 251 252 259 262 269 268 270 267 267 271 273 278 277 282 294 308 306 312 312 310 320 318 319 329 330 337 340 349 328 325 334 339 339 341 345 349 348 342 337 331 333 nan nan nan nan nan nan nan nan nan nan
259 263 273 272 271 265 265 261 253 262 272 275 273 275 277 275 270 269 272 276 278 282 282 284 288 276 270 265 269 269 271 273 276 279 285 289 292 297 293 295 303 309 313 320 323 330 329 321 331 336 338 323 326 325 332 339 342 347 348 345 342 339 336 334 nan nan nan nan nan nan nan nan nan nan
252 257 259 257 257 262 265 274 289 270 263 269 276 275 273 269 270 273 285 306 302 298 291 297 314 309 325 335 313 300 289 282 284 287 290 288 288 294 301 311 310 315 313 322 325 321 321 321 327 323 320 313 321 323 331 342 344 347 346 342 342 341 337 337 338 nan nan nan nan nan nan nan nan nan
248 248 254 259 257 256 258 269 283 282 274 257 263 266 268 266 263 263 268 300 333 351 14 29 21 22 17 8 2 359 351 312 290 281 287 296 296 300 306 306 309 314 309 307 314 317 319 315 318 322 318 317 323 330 335 335 344 344 341 340 343 343 340 338 338 nan nan nan nan nan nan nan nan nan
266 262 254 250 256 258 259 266 272 274 270 259 259 255 250 247 247 251 255 252 274 327 353 8 22 16 3 355 355 332 319 313 287 293 301 296 287 292 298 299 301 301 305 307 310 307 313 309 309 312 308 312 316 324 325 330 331 337 338 342 343 344 342 339 338 nan nan nan nan nan nan nan nan nan
272 269 268 266 260 257 255 267 269 271 269 259 258 257 250 241 235 248 248 250 246 254 265 263 261 246 270 286 293 304 327 320 302 294 297 290 288 290 292 292 283 283 294 297 296 305 302 305 306 305 302 309 306 303 316 321 326 329 328 332 339 345 343 341 337 340 nan nan nan nan nan nan nan nan
269 267 265 268 272 271 265 263 265 270 277 265 256 254 251 243 236 245 248 246 244 242 247 259 273 282 286 286 291 295 296 298 297 299 294 292 290 292 294 293 295 296 290 287 296 299 295 300 301 305 307 303 304 304 309 315 321 324 324 325 332 340 340 336 333 342 nan nan nan nan nan nan nan nan
270 266 264 260 266 273 273 271 272 273 277 276 264 260 256 254 241 242 244 245 242 244 242 243 258 272 277 283 289 291 292 293 291 291 294 292 294 295 296 296 295 296 294 293 296 295 297 297 298 298 301 304 303 304 310 312 314 321 324 323 327 326 328 331 328 nan nan nan nan nan nan nan nan nan
270 267 261 259 262 272 274 272 273 279 281 283 271 269 276 267 251 247 247 245 247 247 246 248 251 260 272 280 284 285 286 286 285 285 288 294 300 300 300 300 301 300 301 297 305 302 299 295 300 298 298 300 302 304 303 307 312 318 317 320 322 322 327 327 328 nan nan nan nan nan nan nan nan nan
270 268 266 257 255 265 268 271 270 269 271 270 275 289 282 270 260 252 248 249 250 249 251 251 246 252 258 261 265 270 273 275 278 283 289 297 303 307 311 315 317 317 313 302 301 304 303 297 294 298 299 297 299 298 302 304 305 312 314 319 319 316 321 321 326 nan nan nan nan nan nan nan nan nan
262 261 261 266 267 260 259 257 259 267 276 279 290 287 287 282 270 259 254 252 253 251 248 245 240 238 244 246 254 259 260 263 269 281 289 295 304 311 315 323 325 323 320 315 311 309 306 305 299 298 300 300 301 302 301 302 303 312 316 315 310 311 316 nan nan nan nan nan nan nan nan nan nan nan
257 256 259 259 262 267 266 268 264 263 271 288 294 296 293 286 271 270 266 259 250 242 239 238 236 233 240 246 245 250 257 264 271 278 283 289 291 300 318 320 322 325 321 317 315 311 312 313 311 305 305 305 308 307 306 306 303 309 312 308 309 310 312 nan nan nan nan nan nan nan nan nan nan nan
244 235 240 244 247 248 254 258 259 256 256 260 277 290 290 275 277 276 270 259 248 234 227 230 233 237 240 245 248 252 259 266 277 277 280 286 293 295 298 306 315 315 317 317 316 311 308 308 310 311 311 311 313 314 311 310 312 308 311 312 310 300 305 306 nan nan nan nan nan nan nan nan nan nan
274 270 267 264 258 254 254 256 254 254 253 256 264 262 266 274 276 273 266 259 250 239 233 229 228 232 238 243 250 262 271 281 286 289 292 295 298 296 299 306 311 310 311 312 314 315 315 315 314 313 317 317 316 317 314 313 314 310 310 311 308 311 305 nan nan nan nan nan nan nan nan nan nan nan
274 271 263 261 263 259 257 258 254 255 256 258 263 268 269 272 275 273 270 262 253 243 236 228 229 231 239 243 256 263 275 286 289 291 295 301 302 301 300 303 311 305 303 308 311 313 316 317 316 315 319 319 322 318 315 316 317 313 309 308 309 307 301 308 305 nan nan nan nan nan nan nan nan nan
270 270 268 264 261 261 262 261 256 251 252 256 262 272 272 271 272 272 270 267 260 252 245 236 232 232 240 247 256 262 269 281 285 287 293 297 299 297 300 309 306 304 308 309 308 307 306 307 311 315 314 315 319 318 315 316 315 311 311 309 307 308 308 308 305 nan nan nan nan nan nan nan nan nan
270 268 265 263 261 260 260 260 261 258 253 249 253 257 268 271 272 276 279 276 267 257 249 238 235 235 240 242 258 265 270 269 273 281 290 290 292 297 303 307 310 309 308 309 308 308 307 309 308 308 307 307 309 317 318 315 311 309 311 309 309 311 311 309 308 305 306 304 nan nan nan nan nan nan
275 275 270 264 261 260 260 260 261 260 256 252 247 243 240 245 255 264 267 271 269 265 256 242 231 231 241 248 257 266 273 272 271 275 283 287 291 298 302 307 311 310 309 310 309 304 303 305 305 303 300 299 300 305 314 314 310 312 309 312 314 313 310 309 308 307 306 301 298 300 nan nan nan nan
274 275 274 267 263 262 263 262 261 261 257 252 250 248 241 237 239 241 245 248 252 256 257 250 237 234 238 246 259 270 274 273 273 279 283 288 291 294 296 304 306 304 303 306 306 301 300 302 303 305 304 301 300 304 308 317 319 310 312 311 309 309 304 305 307 307 307 304 300 300 nan nan nan nan
275 273 274 273 269 267 264 260 261 262 259 255 254 254 248 239 238 241 239 243 245 246 244 244 241 239 248 260 265 269 272 275 275 278 283 285 286 289 293 296 297 296 298 300 299 299 298 301 302 304 305 303 304 310 309 292 317 324 310 310 306 302 301 301 301 306 308 306 304 305 nan nan nan 306
272 272 273 273 271 268 264 261 260 259 259 258 257 254 249 243 242 241 243 249 250 243 238 238 235 231 247 272 277 278 276 275 273 274 277 279 281 283 286 287 288 291 293 293 295 298 298 300 302 304 304 306 306 307 303 297 293 309 326 315 309 303 299 300 303 306 307 306 307 305 300 nan nan nan
270 270 270 269 268 268 267 267 267 263 256 252 254 258 257 256 254 254 258 263 260 249 241 238 236 241 253 274 277 275 274 273 274 275 275 275 278 279 280 281 281 283 286 289 291 294 298 302 304 303 304 306 310 309 309 308 310 306 312 322 309 304 302 306 307 303 302 304 302 296 298 293 288 nan
270 269 268 267 267 266 265 266 269 263 247 242 251 262 267 267 265 264 267 269 265 254 241 237 235 238 268 277 274 272 272 274 275 274 273 272 274 276 278 279 280 282 284 289 292 295 299 304 303 300 302 307 308 307 302 304 300 296 298 312 324 316 309 304 305 302 302 301 297 297 301 295 300 294
267 267 268 268 267 266 263 262 260 251 241 241 257 271 274 272 273 272 269 266 260 249 240 234 253 291 291 279 273 270 267 265 265 266 267 268 271 272 276 277 274 278 282 287 291 294 300 299 302 308 297 289 287 284 296 308 309 302 299 300 313 322 318 309 305 302 302 298 299 301 301 301 298 294
258 261 263 264 266 265 263 259 256 245 235 240 256 268 273 272 270 262 261 259 255 248 242 243 271 282 273 265 258 253 247 243 242 243 246 250 254 260 269 272 274 276 279 281 285 291 291 290 292 290 287 290 290 300 311 314 311 305 300 294 293 304 313 307 304 304 300 298 300 299 296 292 292 297
252 252 255 257 259 260 260 258 254 250 245 245 250 257 260 260 256 254 257 259 260 262 270 271 259 250 248 245 247 250 252 256 258 257 252 248 248 250 253 258 261 265 268 271 276 280 283 286 290 293 290 295 303 307 312 312 310 306 301 300 301 299 305 310 300 296 298 307 311 309 303 300 298 303
247 248 249 249 249 249 249 249 247 247 249 251 255 260 265 266 271 276 278 280 280 282 281 267 254 253 257 264 271 277 283 284 280 273 269 268 266 265 266 268 267 265 270 278 281 284 284 286 288 291 292 297 300 304 311 311 310 308 307 306 302 305 308 307 306 296 290 291 301 308 306 305 308 308
nan 245 246 247 247 249 251 251 251 250 250 251 254 256 262 269 271 271 271 270 268 268 268 272 271 271 275 274 275 278 276 274 274 272 270 261 259 263 268 273 275 279 283 288 289 284 283 288 289 291 295 298 300 304 307 308 310 306 306 307 309 309 307 305 309 311 308 304 303 303 301 300 299 299